Other Public Products
Issued by NWS Charleston, SC

Current Version | Previous Version | Graphics & Text | Print | Product List | Glossary On
Versions: 1 2 3 4 5 6 7 8 9 10 11 12 13 14 15 16 17 18 19 20 21 22 23 24 25 26 27 28 29 30 31 32 33 34 35 36 37 38 39 40 41 42 43 44 45 46 47 48 49 50
074
FPUS82 KCHS 261012
OPUCHS

TEST...KCHS/KSAV Gateway Observations...TEST
National Weather Service Charleston SC
600 AM EDT FRI MAY 26 2017

NOTE: "fair" indicates few or no clouds below 12,000 feet with no
significant weather and/or obstructions to visibility.

SCZ050-WAZ558-NCZ071-TXZ119-213-PAZ071-DCZ001-FLZ074-172-MI076-
NYZ176-178-MAZ016-IL014-TNZ027-NJZ106-GAZ044-MD014-261100-

...Gateway Observations for Charleston International...

CITY           SKY/WX    TMP DP  RH WIND       PRES   REMARKS
Chas Airport   CLEAR     62  52  69 W6        29.96R
Seattle        CLEAR     57  48  72 NE6       29.92R
Charlotte      CLEAR     57  51  80 W5        29.92R
Dallas DFW     CLOUDY    76  70  82 S16G25    29.69R
Dallas Love    CLOUDY    77  69  76 S15G23    29.71R
Philladelphia  PTCLDY    59  56  89 W7        29.58R
Wash National  CLOUDY    60  56  86 SW7       29.67R
Baltimore      CLOUDY    58  57  97 W8        29.63R
Miami          MOCLDY    80  74  81 SW3       29.99R
Detroit        CLOUDY    56  52  86 NW7       29.75R
Newark         LGT RAIN  55  55 100 NW5       29.53R
Laguardia      LGT RAIN  57  55  93 NW7       29.52R FOG
J F K          CLOUDY    57  57 100 N8        29.54R
Boston Logan   CLOUDY    49  48  97 N10       29.50R
Ft. Lauderdale MOCLDY    77  75  93 CALM      29.99R
Chicago O`Hare CLOUDY    54  50  86 CALM      29.82R
Chicago Midway CLOUDY    55  51  86 CALM      29.83R
Houston Bush   PTCLDY    75  69  81 S6        29.84R
Houston Hobby  MOCLDY    74  71  91 S5        29.83R
Nashville      CLEAR     54  51  90 S5        29.94S
Atlanta        PTCLDY    57  51  80 W5        30.00R

$$

GAZ044-118-TXZ119-213-NCZ071-DCZ001-MDZ014-506-PAZ021-071-NJZ106-
NYZ176-178-MAZ106-OHZ011-021-055-MIZ076-KYZ091-ILZ014-INZ047-
MNZ060-ONZ431-261100-

...Gateway Observations for Savannah International...

CITY           SKY/WX    TMP DP  RH WIND       PRES   REMARKS
Savannah Arpt  CLEAR     58  52  80 W5        30.00R
Atlanta        PTCLDY    57  51  80 W5        30.00R
Charlotte      CLEAR     57  51  80 W5        29.92R
Dallas DFW     CLOUDY    76  70  82 S16G25    29.69R
Houston Bush   PTCLDY    75  69  81 S6        29.84R
Wash National  CLOUDY    60  56  86 SW7       29.67R
Wash Dulles    MOCLDY    57  55  93 SW3       29.67R
Baltimore      CLOUDY    58  57  97 W8        29.63R
Philadelphia   PTCLDY    59  56  89 W7        29.58R
Newark         LGT RAIN  55  55 100 NW5       29.53R
Laguardia      LGT RAIN  57  55  93 NW7       29.52R FOG
J F K          CLOUDY    57  57 100 N8        29.54R
Boston         CLOUDY    49  48  97 N10       29.50R
Pittsburg      DRIZZLE   58  57  97 W8        29.70R
Akron          CLOUDY    59  55  87 W13       29.72R FOG
Cleveland      CLOUDY    59  55  87 NW12      29.74R
Cincinnati     PTCLDY    50  49  96 SW3       29.86R
Columbus       CLEAR     55  55  97 W8        29.80R
Detroit        CLOUDY    56  52  86 NW7       29.75R
Chicago O`Hare CLOUDY    54  50  86 CALM      29.82R
Minneapolis    CLOUDY    61  52  72 SE8       29.69F
Indianapolis   CLOUDY    52  51  97 CALM      29.86R FOG
Toronto Canada DRIZZLE   55  54  94 N10       29.60S FOG

$$




USA.gov is the U.S. government's official web portal to all federal, state and local government web resources and services.